Weather History for West Palm Beach, FL

Change the Weather History Date:

Saturday, November 5, 2011

  Actual Average Record
Temperature  
Mean Temperature 68 °F 74 °F  
Max Temperature 79 °F 82 °F 91 °F (1992)
Min Temperature 56 °F 67 °F 45 °F (1927)
Degree Days  
Heating Degree Days 0 0  
Month to date heating degree days 0 0  
Since 1 July heating degree days 0 1  
Cooling Degree Days 3 10  
Month to date cooling degree days 43 50  
Year to date cooling degree days 4332 3671  
Growing Degree Days 18 (Base 50)    
Moisture  
Dew Point 59 °F    
Average Humidity 75    
Maximum Humidity 90    
Minimum Humidity 60    
Precipitation  
Precipitation 0.15 in 0.17 in 3.94 in (1981)
Month to date precipitation 0.17 0.86  
Year to date precipitation 45.83 55.06  
Snow  
Snow 0.00 in - - ()
Month to date snowfall 0.0  
Since 1 July snowfall 0.0  
Since 1 September snowfall 0.0  
Snow Depth 0.00 in    
Sea Level Pressure  
Sea Level Pressure 29.95 in    
Wind  
Wind Speed 13 mph (North)    
Max Wind Speed 24 mph    
Max Gust Speed 31 mph    
Visibility 10 miles    
Events Rain    
T = Trace of Precipitation, MM = Missing Value Source: NWS Daily Summary

Daily Weather History Graph

Daily Weather History Graph

Search for Another Location

Airport:

Trip Planner

Search our weather history database for the weather conditions in past years. The results will help you decide how hot, cold, wet, or windy it might be!

Date:

Astronomy

Nov. 05, 2011 Rise Set
Actual Time 7:32 AM EDT 6:35 PM EDT
Civil Twilight 7:08 AM EDT 6:59 PM EDT
Nautical Twilight 6:40 AM EDT 7:26 PM EDT
Astronomical Twilight 6:13 AM EDT 7:54 PM EDT
Moon 3:31 PM EDT (11/5) 3:05 AM EDT (11/5)
Length of Visible Light 11h 50m
Length of Day
11h 02m
Waxing Gibbous, 78% of the Moon is Illuminated
Nov 5
Waxing Gibbous
Nov 10
Full
Nov 18
Last Quarter
Nov 25
New
Dec 2
First Quarter

Hourly Weather History & Observations

Time (EDT) Temp. Dew Point Humidity Pressure Visibility Wind Dir Wind Speed Gust Speed Precip Events Conditions
12:53 AM 61.0 °F 52.0 °F 72% 29.93 in 10.0 mi NNW 12.7 mph - N/A   Clear
1:53 AM 60.1 °F 52.0 °F 75% 29.92 in 10.0 mi NW 12.7 mph - N/A   Clear
2:53 AM 59.0 °F 51.1 °F 75% 29.92 in 10.0 mi NNW 12.7 mph - N/A   Clear
3:53 AM 59.0 °F 51.1 °F 75% 29.91 in 10.0 mi NNW 12.7 mph - N/A   Clear
4:53 AM 57.9 °F 50.0 °F 75% 29.91 in 10.0 mi NNW 13.8 mph - N/A   Clear
5:53 AM 57.9 °F 50.0 °F 75% 29.92 in 10.0 mi NNW 12.7 mph - N/A   Clear
6:53 AM 57.0 °F 51.1 °F 81% 29.94 in 10.0 mi NW 10.4 mph - N/A   Partly Cloudy
7:53 AM 57.0 °F 52.0 °F 83% 29.95 in 10.0 mi NW 10.4 mph - N/A   Partly Cloudy
8:53 AM 61.0 °F 53.1 °F 75% 29.96 in 10.0 mi NW 9.2 mph - N/A   Partly Cloudy
9:53 AM 66.0 °F 55.9 °F 70% 29.97 in 10.0 mi NNW 10.4 mph - N/A   Scattered Clouds
10:53 AM 71.1 °F 59.0 °F 66% 29.98 in 10.0 mi NW 12.7 mph - N/A   Partly Cloudy
11:53 AM 73.0 °F 61.0 °F 66% 29.97 in 10.0 mi North 9.2 mph - N/A   Partly Cloudy
12:53 PM 75.9 °F 62.1 °F 62% 29.95 in 10.0 mi NNW 10.4 mph 18.4 mph N/A   Scattered Clouds
1:53 PM 78.1 °F 64.0 °F 62% 29.94 in 10.0 mi North 12.7 mph 21.9 mph N/A   Mostly Cloudy
2:53 PM 78.1 °F 64.9 °F 64% 29.93 in 10.0 mi North 15.0 mph 21.9 mph N/A   Mostly Cloudy
3:53 PM 79.0 °F 64.0 °F 60% 29.94 in 10.0 mi NNE 18.4 mph 27.6 mph N/A   Mostly Cloudy
4:53 PM 77.0 °F 63.0 °F 62% 29.94 in 10.0 mi North 15.0 mph 25.3 mph N/A   Mostly Cloudy
5:53 PM 75.9 °F 63.0 °F 64% 29.95 in 10.0 mi NNE 18.4 mph - N/A   Mostly Cloudy
6:53 PM 75.0 °F 64.0 °F 69% 29.96 in 10.0 mi North 11.5 mph 23.0 mph N/A   Mostly Cloudy
7:53 PM 72.0 °F 68.0 °F 87% 29.98 in 7.0 mi North 11.5 mph - 0.05 in Rain Light Rain
8:53 PM 71.1 °F 68.0 °F 90% 29.99 in 10.0 mi North 9.2 mph - 0.07 in   Mostly Cloudy
9:53 PM 71.1 °F 66.9 °F 87% 30.00 in 10.0 mi NNE 6.9 mph - 0.00 in   Mostly Cloudy
10:53 PM 72.0 °F 68.0 °F 87% 30.01 in 10.0 mi NNE 9.2 mph - 0.02 in Rain Light Rain
11:53 PM 75.0 °F 64.9 °F 71% 30.00 in 10.0 mi ENE 18.4 mph 29.9 mph 0.01 in   Overcast